Location: Azul
(36.7830°S, 59.8500°W)
Time: 02:24:29
(UTC-03:00)

CAS-4A - Pass Details

Date: 28 October 2021
Orbit: 529 x 539 km, 43.0° (Epoch: 04 December)

Event Time Altitude Azimuth Distance (km) Brightness Sun altitude
Exits shadow 02:45:23 20° 131° (SE) 1,283 ? -32.3°
Drops below altitude 10° 02:46:50 10° 121° (ESE) 1,795 ? -32.2°
Sets 02:49:11 0° 113° (ESE) 2,686 ? -31.9°
